[[{"header":{"parameterUnit":"m.s-1","parameterCategory":1,"la1":30.2991,"la2":30.254,"lo1":-89.0895,"lo2":-89.0444,"dy":0.0017,"dx":0.0017,"nx":28,"ny":28,"refTime":"2024-04-22T21:00:00:Z","depth":0,"parameterNumber":2,"parameterNumberName":"U-component_of_WINDS"},"data":[0,0,0,0,0,0,0,0,0,0,0,0,0,0,0,0,0,0,0,0,0,0,0,0,0,0,0,0,0,0,0,0,0,0,0,0,0,0,0,0,0,0,0,0,0,0,0,0,0,0,0,0,0,0,0,0,0,0,-2.5838,-2.5839,0,-2.5883,-2.5884,-2.5884,-2.5878,-2.5878,-2.5877,-2.5876,-2.592,-2.5922,-2.5924,0,0,0,0,0,0,0,0,0,0,0,0,0,-2.5746,-2.5748,-2.5838,-2.5839,-2.5839,-2.5883,-2.5884,-2.5884,-2.5878,-2.5878,-2.5877,-2.5876,-2.592,-2.5922,-2.5924,0,0,0,0,0,0,0,0,0,0,0,0,0,-2.5788,-2.5748,-2.5838,-2.5842,-2.5842,-2.5883,-2.5884,-2.5885,-2.5879,-2.5878,-2.5876,-2.5875,-2.5919,-2.5922,-2.5924,-2.5964,0,0,-2.5933,-2.5934,0,0,0,0,0,0,0,0,-2.5786,-2.5791,-2.5841,-2.5841,-2.5842,-2.5874,-2.5867,-2.5911,-2.5879,-2.5865,-2.5876,-2.5875,-2.5906,-2.5909,-2.592,-2.5966,-2.5968,-2.5933,-2.5935,-2.5936,-2.5937,0,0,0,0,0,0,0,-2.5783,-2.5789,-2.5856,-2.5841,-2.5842,-2.5841,-2.5845,-2.5876,-2.5891,-2.5866,-2.5866,-2.5871,-2.5906,-2.5918,-2.5921,-2.5968,-2.5933,-2.5936,-2.5937,-2.5938,-2.6049,-2.605,0,0,0,0,0,0,-2.5779,-2.5787,-2.5854,-2.5857,-2.5811,-2.5843,-2.5849,-2.5865,-2.589,-2.5893,-2.5872,-2.5871,-2.5913,-2.5918,-2.5923,-2.597,-2.5936,-2.5939,-2.594,-2.6048,-2.6049,-2.605,0,0,0,0,0,0,-2.5777,-2.5785,-2.5853,-2.5822,-2.5831,-2.5846,-2.5864,-2.5866,-2.5878,-2.5895,-2.5898,-2.5881,-2.5913,-2.5919,-2.5954,-2.5972,-2.594,-2.5942,-2.6046,-2.6048,-2.605,-2.6066,0,0,0,0,0,0,-2.5774,-2.5784,-2.58,-2.5823,-2.5832,-2.5883,-2.5866,-2.5868,-2.5883,-2.5882,-2.5904,-2.5907,-2.5912,-2.595,-2.5957,-2.5975,-2.5945,-2.6044,-2.6047,-2.6049,-2.6064,-2.6068,-2.6072,0,0,0,0,0,-2.5771,-2.5802,-2.58,-2.5809,-2.5852,-2.5884,-2.589,-2.5896,-2.5885,-2.59,-2.5911,-2.5906,-2.5969,-2.5953,-2.5961,-2.5981,-2.6043,-2.6046,-2.6049,-2.6062,-2.6067,-2.6072,0,0,0,0,0,0,-2.5779,-2.5805,-2.5803,-2.5843,-2.5861,-2.5883,-2.5902,-2.5901,-2.5923,-2.5921,-2.5927,-2.5932,-2.5967,-2.5978,-2.5959,-2.602,-2.6005,-2.6009,-2.6012,-2.6017,-2.6021,-2.6017,-2.5947,0,0,0,0,0,-2.5786,-2.5811,-2.5832,-2.5864,-2.5874,-2.5887,-2.5901,-2.5904,-2.5924,-2.5931,-2.5945,-2.5964,-2.5988,-2.6003,-2.6026,-2.6066,-2.6071,-2.6083,-2.6087,-2.6091,-2.6094,-2.6116,-2.6122,-2.606,-2.606,-2.606,0,0,-2.5799,-2.5816,-2.5832,-2.5866,-2.5881,-2.5906,-2.5893,-2.592,-2.5939,-2.5935,-2.5969,-2.598,-2.6001,-2.6039,-2.6056,-2.6049,-2.6113,-2.6094,-2.6097,-2.6098,-2.612,-2.6126,-2.6131,-2.6062,-2.6061,-2.6061,0,0,-2.5837,-2.5852,-2.5881,-2.5897,-2.592,-2.5929,-2.5936,-2.5958,-2.5966,-2.6,-2.5998,-2.602,-2.6062,-2.6077,-2.609,-2.6135,-2.6131,-2.6142,-2.6163,-2.6184,-2.6189,-2.6194,-2.6209,-2.6215,-2.6146,-2.6146,-2.6146,0,-2.585,-2.5889,-2.5896,-2.5924,-2.5939,-2.5938,-2.5968,-2.5982,-2.6012,-2.6022,-2.6014,-2.6066,-2.608,-2.6121,-2.6133,-2.6144,-2.6151,-2.6139,-2.6188,-2.6193,-2.6197,-2.6212,-2.6218,-2.6147,-2.6147,-2.6147,-2.6147,0,-2.5904,-2.5931,-2.5951,-2.5981,-2.5998,-2.6027,-2.6038,-2.6055,-2.6058,-2.6067,-2.6103,-2.612,-2.6147,-2.6157,-2.6159,-2.6199,-2.6194,-2.6187,-2.6171,-2.6204,-2.6218,-2.6224,-2.6149,-2.6148,-2.6148,-2.6148,0,0,-2.5946,-2.598,-2.5988,-2.6001,-2.6028,-2.6048,-2.6077,-2.6104,-2.6119,-2.6139,-2.6163,-2.6199,-2.6193,-2.6208,-2.6212,-2.6231,-2.6266,-2.6222,-2.6222,-2.6229,-2.6311,-2.6315,-2.6322,-2.6264,-2.6265,-2.6266,-2.6309,0,-2.5985,-2.6036,-2.6044,-2.6089,-2.6114,-2.6114,-2.6139,-2.6158,-2.6168,-2.6191,-2.6202,-2.6227,-2.6217,-2.6226,-2.6245,-2.6257,-2.6282,-2.6254,-2.6286,-2.6287,-2.6279,-2.6329,-2.6334,-2.6373,-2.6314,-2.6315,-2.6316,0,-2.6037,-2.6061,-2.6108,-2.6132,-2.6143,-2.6165,-2.6191,-2.6213,-2.6234,-2.624,-2.6258,-2.626,-2.629,-2.6274,-2.6314,-2.6296,-2.6309,-2.6317,-2.6319,-2.6321,-2.6302,-2.6332,-2.6385,-2.6391,-2.6325,-2.6324,-2.6323,0,-2.6063,-2.6106,-2.614,-2.6152,-2.618,-2.6196,-2.6209,-2.623,-2.6246,-2.6268,-2.6279,-2.6304,-2.6318,-2.6338,-2.6347,-2.6335,-2.6387,-2.6372,-2.6393,-2.6392,-2.6403,-2.6402,-2.6458,-2.6413,-2.6413,-2.6413,-2.6412,0,-2.6105,-2.6134,-2.6152,-2.6173,-2.6205,-2.6215,-2.6246,-2.6259,-2.6277,-2.63,-2.6302,-2.6324,-2.6335,-2.6358,-2.6365,-2.6398,-2.6404,-2.641,-2.6411,-2.6409,-2.6408,-2.6417,-2.6414,-2.6414,-2.6414,-2.6414,-2.6413,0,-2.6138,-2.6151,-2.6189,-2.6214,-2.6221,-2.6243,-2.6264,-2.6285,-2.6295,-2.6325,-2.6332,-2.6349,-2.6376,-2.6388,-2.6421,-2.6426,-2.6463,-2.6463,-2.6456,-2.6456,-2.6476,-2.6474,-2.654,-2.6549,-2.6498,-2.6499,-2.6499,0,-2.6164,-2.6186,-2.6214,-2.623,-2.6244,-2.6269,-2.6286,-2.6297,-2.6314,-2.6341,-2.6358,-2.6386,-2.6409,-2.6453,-2.6468,-2.6493,-2.6493,-2.6515,-2.6497,-2.6495,-2.6493,-2.6491,-2.6494,-2.6517,-2.6518,-2.6518,-2.6519,0,-2.6208,-2.6214,-2.6238,-2.6266,-2.6286,-2.6308,-2.6329,-2.6342,-2.6355,-2.6375,-2.6404,-2.6421,-2.6456,-2.6484,-2.6511,-2.6524,-2.6523,-2.6525,-2.6531,-2.6528,-2.6523,-2.6526,-2.6464,-2.6523,-2.6522,-2.6522,-2.6522,-2.6521,-2.6238,-2.6258,-2.6281,-2.6309,-2.6326,-2.6346,-2.6366,-2.638,-2.6405,-2.6434,-2.6439,-2.647,-2.6492,-2.6528,-2.6542,-2.6566,-2.6561,-2.657,-2.6572,-2.6574,-2.6575,-2.652,-2.6571,-2.6571,-2.6571,-2.6571,-2.6571,0,-2.6282,-2.6297,-2.6323,-2.6353,-2.6374,-2.6374,-2.6397,-2.6415,-2.6442,-2.6463,-2.6486,-2.6519,-2.6546,-2.6564,-2.6591,-2.6607,-2.6608,-2.6614,-2.6612,-2.6615,-2.6578,-2.657,-2.6613,-2.6613,-2.6613,-2.6613,-2.6613,-2.6613,-2.6307,-2.6342,-2.635,-2.6393,-2.6408,-2.6439,-2.6452,-2.6471,-2.6488,-2.6525,-2.6548,-2.656,-2.6579,-2.6608,-2.6633,-2.6638,-2.6647,-2.6654,-2.6658,-2.6622,-2.6618,-2.6614,-2.6606,-2.6656,-2.6656,-2.6693,-2.6693,-2.6693]},{"header":{"parameterUnit":"m.s-1","parameterCategory":1,"la1":30.2991,"la2":30.254,"lo1":-89.0895,"lo2":-89.0444,"dy":0.0017,"dx":0.0017,"nx":28,"ny":28,"refTime":"2024-04-22T21:00:00:Z","depth":0,"parameterNumber":3,"parameterNumberName":"V-component_of_WINDS"},"data":[0,0,0,0,0,0,0,0,0,0,0,0,0,0,0,0,0,0,0,0,0,0,0,0,0,0,0,0,0,0,0,0,0,0,0,0,0,0,0,0,0,0,0,0,0,0,0,0,0,0,0,0,0,0,0,0,0,0,4.567,4.5671,0,4.5709,4.571,4.571,4.572,4.5719,4.5719,4.5719,4.5755,4.5756,4.5757,0,0,0,0,0,0,0,0,0,0,0,0,0,4.56,4.5601,4.567,4.5671,4.5671,4.5709,4.571,4.571,4.572,4.5719,4.5719,4.5719,4.5755,4.5756,4.5757,0,0,0,0,0,0,0,0,0,0,0,0,0,4.5634,4.5602,4.567,4.5681,4.5682,4.5709,4.571,4.5711,4.572,4.5719,4.5719,4.5719,4.5754,4.5756,4.5758,4.5776,0,0,4.5763,4.5764,0,0,0,0,0,0,0,0,4.5632,4.5636,4.5679,4.568,4.5682,4.5709,4.5698,4.5732,4.572,4.5705,4.5719,4.5718,4.574,4.5743,4.5751,4.5778,4.5779,4.5763,4.5764,4.5765,4.5766,0,0,0,0,0,0,0,4.563,4.5635,4.5686,4.5679,4.5681,4.5682,4.5686,4.5705,4.5724,4.5706,4.5707,4.5712,4.5741,4.5749,4.5752,4.578,4.5763,4.5765,4.5766,4.5767,4.5824,4.5824,0,0,0,0,0,0,4.5626,4.5633,4.5684,4.5687,4.5655,4.5684,4.5689,4.5701,4.5724,4.5727,4.5712,4.5712,4.5746,4.575,4.5753,4.5776,4.5765,4.5767,4.5768,4.5824,4.5824,4.5825,0,0,0,0,0,0,4.5624,4.563,4.5683,4.566,4.5667,4.5685,4.5699,4.5702,4.571,4.5728,4.5731,4.5718,4.5746,4.575,4.5771,4.5778,4.5768,4.5769,4.5823,4.5824,4.5824,4.5823,0,0,0,0,0,0,4.5622,4.563,4.5638,4.566,4.5668,4.5701,4.5699,4.5703,4.5714,4.5714,4.5734,4.5737,4.5746,4.5768,4.5772,4.578,4.5771,4.5823,4.5823,4.5824,4.5823,4.5824,4.5825,0,0,0,0,0,4.562,4.5635,4.5638,4.5645,4.5679,4.5701,4.5706,4.5717,4.5714,4.5722,4.5734,4.5737,4.5776,4.577,4.5775,4.5783,4.5822,4.5823,4.5824,4.5822,4.5824,4.5825,0,0,0,0,0,0,4.5612,4.5638,4.5642,4.5665,4.5681,4.5703,4.5713,4.5718,4.5733,4.5733,4.5745,4.5749,4.5769,4.5778,4.577,4.5802,4.5799,4.5801,4.5796,4.5797,4.5798,4.5796,4.5772,0,0,0,0,0,4.5613,4.563,4.5652,4.567,4.5678,4.5694,4.5705,4.5712,4.5728,4.5734,4.5747,4.5762,4.5778,4.5788,4.5804,4.5824,4.5828,4.5832,4.5833,4.5834,4.5836,4.5847,4.5849,4.5828,4.5828,4.5828,0,0,4.5615,4.5632,4.5642,4.5669,4.5682,4.5699,4.57,4.5717,4.573,4.5737,4.5757,4.5767,4.5784,4.5805,4.5814,4.5813,4.5842,4.5835,4.5836,4.5837,4.5848,4.585,4.5852,4.5829,4.5829,4.5828,0,0,4.5628,4.5642,4.566,4.5673,4.5693,4.5704,4.5708,4.5729,4.5737,4.5757,4.5763,4.5777,4.5804,4.5816,4.5826,4.5843,4.5846,4.5848,4.5853,4.5864,4.5866,4.5867,4.5874,4.5876,4.5849,4.5849,4.5849,0,4.5628,4.5655,4.5667,4.5685,4.5697,4.5705,4.5722,4.5734,4.5758,4.5765,4.5764,4.5798,4.581,4.5834,4.5838,4.5845,4.585,4.5846,4.5865,4.5866,4.5868,4.5874,4.5876,4.5849,4.5849,4.5849,4.5849,0,4.5653,4.5672,4.5683,4.5707,4.572,4.5737,4.5752,4.5763,4.5769,4.5779,4.58,4.5815,4.5834,4.584,4.5845,4.5864,4.5862,4.5863,4.5859,4.587,4.5876,4.5878,4.585,4.585,4.585,4.5849,0,0,4.5662,4.5694,4.5698,4.5709,4.5732,4.5746,4.5763,4.5783,4.5792,4.5808,4.5822,4.5845,4.5846,4.5857,4.5863,4.5873,4.5886,4.5872,4.5873,4.5874,4.5907,4.5907,4.591,4.5888,4.5889,4.5889,4.5906,0,4.5678,4.5711,4.5723,4.5749,4.5766,4.5774,4.5789,4.5804,4.5814,4.5829,4.5839,4.5855,4.5855,4.5861,4.5871,4.5882,4.5893,4.5881,4.5901,4.5901,4.5897,4.5913,4.5913,4.5928,4.5908,4.5909,4.5909,0,4.5701,4.5719,4.5747,4.5769,4.5776,4.5789,4.5808,4.5823,4.584,4.5846,4.5859,4.5865,4.5882,4.5878,4.5901,4.5893,4.5901,4.5908,4.5909,4.5911,4.5906,4.5916,4.5933,4.5936,4.5913,4.5913,4.5912,0,4.5705,4.5736,4.5757,4.5766,4.5792,4.5801,4.5811,4.5828,4.5839,4.5855,4.5862,4.588,4.5889,4.5902,4.5912,4.5908,4.5935,4.5931,4.594,4.594,4.5945,4.5945,4.5965,4.595,4.595,4.595,4.595,0,4.5722,4.5738,4.5759,4.5772,4.5791,4.5804,4.5822,4.5833,4.5848,4.5862,4.587,4.5883,4.5896,4.591,4.5918,4.5936,4.594,4.5945,4.5947,4.5945,4.5944,4.5951,4.595,4.5951,4.5951,4.5951,4.5951,0,4.5729,4.5744,4.5768,4.579,4.5796,4.5809,4.5828,4.584,4.585,4.5868,4.5873,4.5889,4.5906,4.5918,4.594,4.5945,4.5965,4.5966,4.5959,4.596,4.5969,4.5968,4.5993,4.5997,4.598,4.598,4.5981,0,4.5739,4.5753,4.5777,4.5788,4.5799,4.5816,4.5828,4.5841,4.5853,4.5873,4.5883,4.5901,4.5916,4.5943,4.5956,4.5972,4.5975,4.5982,4.5977,4.5974,4.5975,4.5974,4.5975,4.5983,4.5983,4.5983,4.5983,0,4.5756,4.5762,4.578,4.58,4.5814,4.583,4.5846,4.5854,4.5869,4.5882,4.59,4.5912,4.5935,4.5952,4.597,4.598,4.5984,4.5985,4.5988,4.5986,4.5981,4.5984,4.5962,4.5984,4.5984,4.5984,4.5984,4.5984,4.5765,4.5778,4.5797,4.5816,4.5829,4.5844,4.5857,4.5869,4.5886,4.5906,4.5912,4.5931,4.5947,4.5972,4.5982,4.5996,4.5995,4.6,4.6001,4.6002,4.6002,4.5979,4.5999,4.5999,4.5999,4.5999,4.5999,0,4.5782,4.5795,4.5812,4.5835,4.585,4.5854,4.5871,4.5883,4.59,4.5915,4.5931,4.5952,4.5969,4.5983,4.6,4.6009,4.6011,4.6013,4.6013,4.6015,4.6001,4.5997,4.6011,4.6011,4.6011,4.6011,4.6011,4.6011,4.5793,4.5814,4.5823,4.5851,4.5863,4.5883,4.5893,4.5906,4.5918,4.5942,4.5957,4.5966,4.5981,4.5999,4.6015,4.6018,4.6024,4.6026,4.603,4.6017,4.6016,4.6014,4.6011,4.6027,4.6027,4.6042,4.6042,4.6042]}]]